Weather in Uralsky

Russia / Perm Krai     57°56′28″N   55°33′21″E
temp.,
°C
wind,
m/s
gust,
m/s
humid.,
%
clouds,
%
prec.,
mm/h
press.,
hPa
HPBL,
m
2 march, tue
tue223:00−17ssw399563 0.0 1014203
02:00−16ssw5129578 0.0 1011380
05:00−14ssw5139189 0.0 1008446
08:00−14ssw61493100 0.4 1004537
11:00−14ssw61393100 1.2 1002579
14:00−11ssw61291100 0.8 999621
17:00−8ssw51192100 1.4 998675
20:00−8ssw41194100 0.8 996549
3 march, wed
wed323:00−8s3995100 1.4 995385
02:00−8s2497100 0.5 994137
05:00−9ssw1197100 0.6 99521
08:00−8w1197100 0.2 99421
11:00−5wnw2494100 0.4 995266
14:00−2w2492100 0.0 996421
17:00−2sw3592100 0.2 996491
20:00−4wsw2497100 0.4 996112
4 march, thu
thu423:00−5nw4896100 1.3 997489
02:00−8wnw3893100 0.4 997328
05:00−14w249678 0.4 99883
08:00−13sw279562 0.0 998222
11:00−10sw369477 0.1 999316
14:00−6ssw4892100 0.1 997551
17:00−5sw5990100 0.6 997737
20:00−7ssw41292100 0.1 995555
5 march, fri
fri523:00−6s41193100 0.5 993622
02:00−6s51293100 0.9 989634
05:00−3wsw4992100 3.4 988864
08:00−8sw399359 0.1 988255
11:00−6wnw489077 0.2 992577
14:00−5wnw5888100 0.1 996777
17:00−6wnw4783100 0.2 1001935
20:00−12wnw369173 0.0 1004133
6 march, sat
sat623:00−15w249551 0.0 100771
02:00−17w239626 0.0 100940
05:00−19wsw229715 0.0 101221
08:00−20wsw229848 0.0 101327
11:00−16sw249369 0.0 1012256
14:00−11wsw238498 0.0 1011488
17:00−10ssw128599 0.0 1009508
20:00−16wsw119658 0.0 100820